铱星星座 132星 (IRIDIUM 132)

导读 | 豆包AI

IRIDIUM 132(铱星132)是美国铱星 NEXT 卫星通信系统中的一员,于2017年10月9日发射升空,接替第一代铱星星座完成全球移动通信网络升级。该卫星运行在近地轨道,为全球任何地点提供语音、数据通信服务,支持海事、航空和偏远地区通信,补充了地面网络覆盖盲区,是全球首个实现无缝覆盖的低轨卫星通信系统的重要组成部分,体现了美国在低轨卫星通信领域的领先布局。

Basic Information
目录编号:
42961
目录名称:
IRIDIUM 132
国际标识:
2017-061G
轨道中心:
EARTH
卫星名称:
铱星星座 132星
卫星全名:
铱星星座 132星 (IRIDIUM 132)
卫星状态:
在轨 (已飞行3078 天)
发射日期:
2017-10-09 UTC
国别 :
美国 (US)
星等 :
--
Orbit Information
数据来源 国际轨道数据 AOE轨道数据
星历时间 2026-03-13T09:56:23+0800
1天前
查看轨道信息
2026-03-08T07:00:00+0800
6天前
查看轨道信息
半长轴 7155.806km 7155.8km
偏心率 0.0001995 0.0002167
轨道倾角 86.392° 86.392°
近地点辐角 90.454° 87.200°
升交点赤经 65.423° 67.567°
平近点角 269.689° 121.340°
近地点 776.241km 776.112km
远地点 779.097km 779.214km
周期 100.403分钟 100.403分钟
每日圈数 14.342174 14.342191
Detailed Information
平衡模式:
三轴稳定
覆盖范围:
全球
运营商:
铱星通信公司
运营商所在国:
美国
制造商(研发单位):
阿莱尼亚宇航公司
制造商所在国:
意大利
使用方式:
暂无
Satellite Introduction
铱星(Iridium)是由共66个运作中的通信卫星组成的卫星通信系统。这个系统原本规划77个通信卫星,所以用原子序数为77的铱元素来命名。铱卫星允许人们使用手持型电子设备进行全球性的语音及数据通讯。该卫星仍在工作。
2D Orbit Map
3D Orbit Map
Orbit Altitude Analysis Chart
Orbit Inclination Analysis Chart
Orbit Comprehensive Analysis Chart
View Comprehensive Chart